📊 Raw Sensor Data

Showing records 37701 to 37725 of 84,917 total

ID Distance (ft) Battery V Battery A Int Temp (°F) Int Humid (%) Ext Temp (°F) Solar V RSSI SNR Time Stamp
47229 15.3 3.81 0 95 44 86 5.10 -70 8 07/24/2025 04:00 PM
47228 15.3 3.81 0 95 44 85 5.10 -71 8 07/24/2025 03:45 PM
47227 15.3 4.03 0 94 43 84 5.10 -71 8 07/24/2025 03:30 PM
47226 15.4 3.81 0 94 42 85 5.10 -70 8 07/24/2025 03:15 PM
47225 15.3 4.05 0 93 42 84 5.10 -72 8 07/24/2025 03:00 PM
47224 15.3 3.81 0 93 41 86 5.10 -70 7 07/24/2025 02:45 PM
47223 15.3 3.91 0 91 41 83 5.10 -71 7 07/24/2025 02:30 PM
47222 15.3 3.81 0 90 41 83 5.10 -71 7 07/24/2025 02:15 PM
47221 15.3 3.81 0 88 41 77 5.10 -73 7 07/24/2025 02:00 PM
47220 15.3 3.81 0 87 41 80 5.10 -72 7 07/24/2025 01:45 PM
47219 15.3 3.81 0 84 42 78 5.10 -72 8 07/24/2025 01:30 PM
47218 15.3 3.81 0 82 43 76 5.10 -70 7 07/24/2025 01:15 PM
47217 15.3 3.81 0 82 42 77 5.10 -70 7 07/24/2025 01:00 PM
47216 15.3 3.81 0 78 44 74 5.10 -70 8 07/24/2025 12:45 PM
47215 15.3 3.81 0 79 43 73 5.10 -71 8 07/24/2025 12:30 PM
47214 15.3 3.81 0 78 43 74 5.10 -72 8 07/24/2025 12:15 PM
47213 15.3 3.81 0 78 43 76 5.10 -71 7 07/24/2025 12:00 PM
47212 15.3 3.81 0 78 43 77 5.10 -70 8 07/24/2025 11:45 AM
47211 15.4 3.81 0 76 43 78 5.10 -72 7 07/24/2025 11:30 AM
47210 15.3 3.81 0 74 43 73 5.10 -71 7 07/24/2025 11:15 AM
47209 15.4 3.83 0 75 42 73 5.10 -72 8 07/24/2025 11:00 AM
47208 15.4 3.82 0 74 43 75 5.10 -73 8 07/24/2025 10:45 AM
47207 15.4 3.82 0 73 42 74 5.10 -72 8 07/24/2025 10:30 AM
47206 15.4 3.82 0 72 43 75 5.10 -70 8 07/24/2025 10:15 AM
47205 15.3 3.92 0 71 43 69 5.10 -70 8 07/24/2025 10:00 AM